Lid_Strength_Index
4 4 4 5 6 7 5 5 6 2 2 7 7 8 7 9 7 5 7 7 7 8 7 7 7 7 6 4 4 6 5 7 9 8 6 6 6 7 7 10 11 9 10 10
4 4 4 5 7 7 5 6 6 2 4 9 9 8 8 7 7 7 7 8 7 6 7 8 7 6 5 5 5 6 5 7 10 10 8 6 7 6 6 7 7 10 12 10
4 4 4 5 6 7 5 6 7 4 4 4 7 7 8 8 6 7 6 7 6 7 7 6 7 7 5 5 5 3 4 7 8 11 9 7 8 8 7 7 10 10 10 9
3 3 3 4 6 5 4 3 5 5 7 6 7 7 7 8 7 5 5 6 6 7 8 7 7 6 5 5 6 5 5 8 7 7 7 7 7 8 8 8 8 10 9 9
3 3 3 4 5 6 3 5 6 4 6 6 7 9 7 8 7 7 7 7 6 6 7 7 8 7 7 6 5 6 5 8 7 8 7 7 8 7 7 7 7 8 8 8
3 3 3 4 5 5 4 3 3 5 7 7 7 7 8 8 6 6 5 6 7 7 6 5 5 5 5 5 6 6 6 7 8 10 8 8 10 8 7 7 7 7 9 7
3 3 2 4 4 5 3 4 4 5 8 6 7 7 7 8 7 7 5 5 6 5 3 3 4 4 5 5 5 5 7 7 8 10 9 14 7 6 6 7 6 6 6 6
4 3 3 4 4 5 3 4 5 6 8 6 7 6 6 6 5 6 6 5 4 3 4 7 8 8 7 6 5 5 5 7 9 11 11 9 8 7 7 7 7 5 6 6
4 3 3 3 4 4 3 3 4 5 8 6 5 7 6 7 7 6 5 3 2 3 6 8 11 12 9 9 8 5 5 6 8 9 12 13 7 5 4 5 9 5 5 6
4 3 3 3 3 3 3 3 2 5 6 4 4 6 7 5 6 7 5 5 5 4 7 9 11 11 8 11 10 10 9 9 10 10 11 9 6 5 5 10 8 5 4 5
4 3 3 3 3 3 3 4 2 3 5 4 3 3 5 5 5 8 5 6 6 7 10 10 10 10 9 9 8 8 9 10 10 9 11 12 5 5 8 5 4 4 4 4
4 3 2 2 3 3 3 5 1 2 5 4 1 2 1 2 2 4 4 5 6 5 8 8 8 10 9 9 11 7 10 7 8 8 9 5 4 4 3 4 4 4 4 4
4 3 2 2 3 3 2 3 3 3 5 4 3 4 2 1 1 1 6 4 3 4 4 6 8 10 8 12 10 9 7 6 8 8 6 6 5 4 3 3 4 3 3 4
3 3 3 3 3 2 2 3 2 3 5 8 5 1 2 1 1 1 1 2 2 2 4 6 8 10 6 9 8 9 7 6 7 7 7 6 4 4 4 4 3 3 3 3
4 3 3 2 2 3 2 2 2 2 5 8 6 3 2 2 2 3 2 2 3 5 6 7 10 8 8 7 7 9 6 7 9 7 6 6 6 4 3 4 4 3 3 3
4 3 3 2 2 2 2 4 2 2 2 7 9 3 4 3 3 3 3 3 3 4 6 7 6 6 7 10 10 6 5 5 5 6 4 4 4 3 3 3 3 3 3 3
3 3 2 2 2 2 4 5 4 3 3 7 8 6 4 3 4 3 3 3 4 5 6 7 8 8 6 10 12 6 5 4 4 4 4 6 4 5 3 3 3 3 2 2
3 3 2 2 2 3 4 1 3 3 6 5 8 8 5 3 6 6 3 5 5 5 6 6 6 7 8 12 8 7 5 4 4 4 4 3 3 3 3 2 3 3 3 3
3 2 3 2 3 5 2 1 2 3 5 8 7 9 9 3 5 5 5 4 8 5 7 6 6 8 12 8 7 6 5 5 5 4 3 3 4 4 3 3 3 3 3 3
3 3 5 6 3 1 1 3 5 6 6 6 9 5 8 5 7 7 7 6 8 10 7 5 8 9 6 5 5 5 4 4 4 5 5 4 4 4 4 3 3 2 3 2
3 4 5 2 2 2 5 7 8 7 9 7 6 6 8 4 8 9 6 10 8 11 9 9 9 9 6 4 4 4 3 3 3 3 3 3 3 3 3 3 3 2 2 2
5 4 3 3 5 6 9 9 8 9 9 6 7 7 7 6 4 8 7 10 10 12 7 9 10 6 4 4 4 3 3 3 3 3 3 3 3 3 2 3 2 2 2 2
2 4 6 6 7 12 12 13 10 10 8 7 7 9 7 6 5 8 9 12 12 7 11 11 8 6 5 5 4 3 3 3 3 3 3 3 3 2 2 2 2 2 2 2
5 7 12 9 10 10 9 10 9 7 6 7 7 8 8 6 8 8 11 10 10 13 13 12 8 6 5 5 4 4 4 3 3 3 3 3 2 2 2 2 1 2 2 2
7 6 11 9 6 7 6 6 6 5 5 6 7 7 7 8 9 8 9 11 12 10 11 9 7 6 5 5 4 4 4 3 3 3 3 2 2 2 2 2 1 1 2 2
5 6 8 6 7 7 6 7 6 5 5 5 6 8 10 9 9 10 11 12 12 11 8 7 6 5 5 4 4 4 3 3 3 2 2 2 2 2 2 2 2 2 2 2
6 6 5 6 6 7 7 6 6 4 5 8 9 11 12 8 10 11 9 11 9 8 7 6 5 5 5 4 4 3 3 3 3 2 2 2 2 2 2 3 2 1 1 1